Location: Bridalveil Moraine
(37.7171°N, 119.6568°W)
Time: 02:48:22
(UTC+00:00)

BlueWalker 3 - Pass Details

Date: 11 August 2024
Orbit: 476 x 487 km, 53.2° (Epoch: 11 September)

Event Time Altitude Azimuth Distance (km) Brightness Sun altitude
Exits shadow 09:31:54 14° 32° (NNE) 1,453 5.0 -33.3°
Drops below altitude 10° 09:32:31 10° 36° (NE) 1,685 5.4 -33.3°
Sets 09:34:47 0° 43° (NE) 2,571 6.5 -33.1°
